{"data":{"norad_id":62839,"epoch":"2026-05-25T03:53:31.818048Z","epoch_age_seconds":60624,"freshness":"FRESH","line1":"1 62839U 25019L   26145.16217382  .00157512  00000+0  12007-2 0  9995","line2":"2 62839  43.0031 205.4068 0008006 283.7477  76.2499 15.70947528 75904","mean_motion":15.70947528,"eccentricity":0.0008006,"inclination_deg":43.0031,"raan_deg":205.4068,"arg_perigee_deg":283.7477,"mean_anomaly_deg":76.2499,"bstar":0.0012007,"rev_number":7590,"period_min":91.664423816452,"perigee_km":350.79624356084,"apogee_km":361.57924434086,"semimajor_km":6734.3247439509,"source":"CELESTRAK","updated_at":"2026-05-25T13:38:19.780146Z"}}